GFSMW_250_spd_021.txt.gz
Wind_Speed
35 34 34 35 37 41 45 45 46 44 41 42 47 50 49 51 54 58 61 62 64 67 68 68 68 68 71 73 75 73 76 80 84 87 84 86 87 88 90 88 89 87 83
31 32 34 38 42 47 44 40 41 45 48 50 50 52 55 59 63 66 69 69 73 75 75 74 73 81 83 83 84 85 86 87 92 94 99 97 96 101 99 96 97 96 94
30 33 38 41 45 41 41 45 47 49 50 52 54 58 61 64 66 70 72 75 77 76 78 79 79 83 87 88 90 91 93 95 100 106 107 107 106 107 110 108 99 99 98
32 37 41 43 41 43 47 50 50 51 53 57 60 63 65 68 71 70 72 76 79 82 84 87 91 95 94 95 97 99 103 107 108 112 116 115 115 113 113 112 107 102 101
37 42 46 44 45 50 51 51 52 56 59 62 66 68 68 74 73 79 81 86 88 90 94 96 99 103 103 104 105 107 111 117 121 121 119 119 119 117 110 102 104 108 103
43 47 50 47 49 53 52 53 58 62 63 67 69 72 73 78 80 85 91 94 98 101 103 105 107 110 113 114 117 118 124 127 127 126 123 119 115 110 104 99 96 101 104
47 49 49 49 53 53 55 61 65 67 68 72 74 78 83 86 92 95 99 102 104 109 112 115 117 119 120 122 126 130 134 132 128 124 118 109 103 99 97 97 95 94 98
48 49 50 53 53 56 60 65 68 72 74 77 81 86 91 95 98 102 105 109 112 116 119 122 125 127 130 134 138 136 134 128 122 115 107 102 99 96 92 91 90 89 89
49 51 52 53 59 63 67 72 75 79 82 86 89 93 98 102 105 109 113 118 123 128 130 133 136 137 141 139 136 132 125 116 106 102 100 99 97 95 92 92 92 90 89
51 54 56 61 67 71 74 77 78 83 88 93 97 101 103 109 113 116 120 125 130 134 139 143 142 141 135 129 124 117 109 103 102 101 98 95 91 87 84 84 85 86 84
58 58 61 68 72 76 78 81 84 89 95 99 103 106 111 116 121 128 132 135 139 140 144 140 134 128 121 113 108 105 104 101 98 94 89 85 80 77 76 76 75 76 76
59 63 67 70 73 76 80 85 90 97 102 105 108 113 120 125 131 136 137 139 139 138 134 127 118 112 106 104 104 102 98 94 88 84 80 77 73 70 68 68 68 68 68
61 67 71 76 80 84 87 92 98 103 108 114 119 124 130 134 135 136 136 133 125 119 113 109 107 106 104 101 98 93 88 83 79 75 73 70 67 65 63 61 61 61 61
68 73 76 80 84 88 93 99 104 110 115 121 127 132 134 132 130 127 121 119 114 110 108 107 106 103 99 92 88 83 80 77 73 69 67 65 62 60 58 57 57 56 55
73 78 82 86 91 95 102 108 115 121 126 132 134 135 128 123 119 118 114 112 108 106 105 103 99 94 87 83 81 77 73 69 66 63 60 58 56 54 53 54 54 52 51
77 82 86 91 96 102 109 116 124 132 137 137 130 121 116 113 113 112 108 106 106 103 99 93 87 83 80 75 72 69 67 65 62 59 55 51 49 49 48 48 47 47 47
82 87 95 101 107 112 120 122 130 136 128 121 114 110 110 110 109 107 106 104 99 94 88 84 79 75 71 67 64 62 61 59 57 52 48 44 42 43 45 44 41 41 39
88 96 103 109 114 121 126 129 132 126 120 115 107 108 108 106 104 103 100 95 89 84 79 74 70 67 62 60 60 57 56 52 49 45 42 41 41 40 42 39 37 35 35
98 104 111 115 122 128 131 131 127 121 116 112 111 109 105 104 101 95 89 84 80 76 72 67 63 59 59 54 54 53 52 48 44 40 40 40 40 37 35 34 33 32 33
106 109 115 122 126 131 130 126 119 115 111 107 105 105 102 97 95 87 81 77 73 69 66 63 59 57 54 52 51 49 49 45 39 38 39 40 37 34 33 32 31 30 31
111 116 123 127 132 130 124 118 112 112 109 107 103 100 96 89 84 79 73 70 66 64 62 60 57 53 51 49 46 45 45 43 39 36 37 39 34 32 31 30 29 29 30
121 127 130 131 128 124 119 114 111 110 106 103 99 95 91 83 76 71 68 65 63 62 59 55 51 49 47 46 45 42 40 37 35 33 34 35 31 30 30 28 29 28 28
127 128 128 128 126 120 116 111 107 105 102 97 93 87 81 76 70 66 65 63 62 59 55 51 49 48 45 44 41 39 36 33 31 30 30 30 27 27 26 27 27 27 27
126 128 129 126 121 116 111 105 102 100 94 88 83 79 73 69 66 64 62 59 58 54 51 49 47 46 42 40 38 35 31 29 28 28 27 26 24 23 24 25 25 25 26
129 129 129 122 115 111 106 102 97 90 85 80 76 71 68 65 64 61 59 56 52 50 49 49 45 44 41 36 34 32 29 27 25 24 23 23 22 21 22 23 23 24 24
130 129 126 118 109 104 98 93 87 82 77 73 70 67 64 62 61 58 55 53 50 47 45 45 43 41 38 35 31 29 26 24 23 22 21 20 20 20 20 21 22 23 23

GFSMW_250_spd_027.txt.gz
Wind_Speed
33 33 35 38 40 34 35 36 36 37 42 48 54 56 58 61 64 64 63 63 64 67 68 69 69 70 71 74 78 79 80 83 88 87 88 88 89 90 90 91 91 89 87
35 36 36 36 39 41 40 42 45 48 51 56 59 60 63 65 68 67 67 68 71 74 77 76 77 79 81 84 87 89 90 93 98 98 100 98 99 100 101 102 102 98 95
38 41 38 39 40 44 47 49 51 55 58 61 63 64 66 69 69 71 74 76 77 79 81 83 84 87 89 92 95 97 102 105 109 112 111 110 109 106 107 110 113 111 110
40 46 44 42 43 47 51 52 53 57 62 65 64 66 69 69 73 74 78 81 85 87 89 92 94 97 100 104 107 109 111 114 117 120 123 123 120 115 110 115 118 120 120
41 41 42 44 47 50 53 55 58 61 61 62 68 71 71 73 77 81 85 87 90 94 98 102 105 109 113 118 120 123 123 122 120 123 125 124 122 117 111 105 110 114 113
40 38 41 44 48 53 57 62 63 62 63 65 67 69 74 78 83 88 90 94 98 103 107 110 114 118 122 127 126 127 125 124 120 118 115 111 108 106 102 94 88 90 96
40 39 42 45 49 54 57 59 64 67 69 71 74 76 78 83 87 92 96 100 104 111 114 118 125 129 131 131 131 128 124 121 117 110 106 104 101 98 95 91 84 78 80
42 40 43 47 50 52 53 57 61 65 69 73 79 85 89 93 97 102 106 110 115 118 123 130 131 129 126 125 122 119 114 111 106 104 101 98 95 92 91 86 84 80 76
44 44 47 50 53 56 56 59 65 70 74 80 85 89 94 98 103 109 114 120 122 127 134 134 133 127 123 120 116 115 111 108 108 104 99 94 91 89 88 85 82 75 73
44 48 51 54 56 58 61 65 69 75 80 86 91 95 99 104 109 114 120 124 128 133 133 129 126 122 117 112 109 107 106 104 103 99 94 91 87 83 81 77 73 66 66
49 50 52 54 57 61 66 72 75 80 86 91 96 101 105 109 116 123 130 130 131 131 124 120 117 115 112 109 105 101 100 97 93 90 87 85 79 75 72 70 67 63 60
51 55 57 58 60 66 71 76 80 85 90 95 102 109 114 118 123 132 133 129 125 121 120 119 116 111 107 104 103 99 93 87 83 80 79 77 73 70 66 63 62 58 56
52 54 56 60 65 71 77 82 87 92 97 101 108 115 122 124 127 124 129 125 122 124 123 118 113 109 105 100 96 92 87 82 77 73 71 69 67 65 61 57 56 54 53
51 57 61 65 72 77 82 88 93 98 104 110 116 122 124 125 119 123 122 122 121 123 115 109 103 99 94 90 87 83 79 76 72 68 64 62 61 59 57 54 54 53 51
60 63 66 70 76 81 87 93 99 106 112 118 123 128 128 124 124 118 116 108 101 104 103 97 93 89 84 79 78 76 72 70 67 65 64 61 58 55 51 50 50 47 45
62 66 71 77 83 87 93 100 106 114 120 123 128 130 124 129 129 117 109 103 94 93 89 85 81 78 74 72 71 71 68 67 65 63 62 59 55 51 47 45 45 42 40
66 71 77 83 88 94 98 104 111 119 125 131 132 130 129 129 122 113 108 101 95 91 86 80 76 74 70 67 67 68 65 62 60 56 54 53 49 46 42 40 41 37 36
72 77 84 90 95 100 106 111 117 123 131 135 134 129 127 121 111 106 102 95 89 86 82 76 73 71 68 65 63 61 60 57 54 52 49 48 47 42 40 39 38 35 36
77 84 89 94 100 107 111 115 122 130 135 136 130 127 125 120 111 103 97 89 83 79 76 73 70 66 64 62 59 56 54 52 49 46 43 43 44 40 38 37 36 35 34
85 89 93 100 106 112 118 122 130 136 137 133 131 130 118 108 102 94 88 82 78 75 72 69 64 61 60 58 54 53 51 50 47 45 40 38 37 34 33 32 32 33 31
89 94 99 106 111 118 123 130 135 140 134 129 128 116 108 101 94 86 80 77 74 70 67 64 61 58 55 54 51 49 47 45 42 40 36 33 30 29 28 27 27 27 27
95 100 104 110 117 123 129 134 136 135 130 129 114 106 102 94 86 80 76 72 69 65 63 61 59 55 54 51 48 46 44 41 38 34 31 29 27 25 25 24 23 23 25
101 105 110 117 121 127 134 136 134 130 128 116 107 100 95 86 79 75 71 68 65 62 59 58 57 54 52 49 46 44 41 37 34 32 29 26 24 23 22 21 21 22 22
106 111 117 123 125 133 136 135 133 129 120 108 101 95 87 80 76 71 68 65 61 59 56 54 53 52 50 49 45 40 38 35 33 30 28 25 22 20 19 19 20 20 20
113 119 123 128 131 133 132 130 130 123 110 101 95 88 80 76 72 68 65 61 57 55 53 52 50 50 48 45 43 41 38 34 30 27 26 23 21 20 19 18 18 18 19
120 122 127 129 126 129 129 127 121 111 101 94 88 81 76 71 68 65 61 57 55 53 52 50 46 43 43 43 41 38 35 32 29 25 24 21 19 19 18 17 17 18 19

GFSMW_250_spd_030.txt.gz
Wind_Speed
42 40 40 42 41 42 44 41 46 46 49 51 53 57 61 64 65 67 70 69 68 69 68 70 72 73 75 78 80 84 86 86 86 85 85 85 86 89 92 95 96 97 95
38 37 38 40 43 44 47 45 47 47 50 53 57 61 65 67 69 71 71 72 74 76 76 77 79 82 87 89 90 91 94 95 95 97 96 94 98 100 102 106 107 106 107
36 38 39 39 41 43 47 49 49 49 52 57 61 64 67 72 73 73 76 76 77 81 83 85 88 91 92 93 94 97 100 104 106 105 108 109 107 107 113 117 116 116 116
38 38 39 40 41 43 46 49 51 53 55 60 64 67 68 69 72 75 78 81 84 88 90 92 95 98 100 103 105 107 111 113 114 117 117 121 121 116 109 115 120 124 124
44 44 42 44 46 47 48 49 51 54 59 62 63 65 67 69 74 78 83 89 94 97 99 102 105 110 113 117 119 122 125 128 126 124 121 119 120 116 110 104 107 112 118
45 44 46 48 47 49 50 52 53 53 55 58 62 66 69 73 79 83 87 92 97 101 103 107 112 117 121 125 128 130 131 129 125 125 123 119 116 113 107 94 92 98 102
34 38 41 43 46 51 53 54 55 57 61 62 64 69 74 79 83 87 93 98 102 107 110 114 120 125 130 131 130 128 125 125 124 123 120 117 114 110 104 96 90 86 89
39 42 43 44 46 48 51 54 58 60 62 66 71 76 81 86 90 95 101 106 109 113 117 123 127 128 125 120 118 119 120 121 121 118 115 109 103 98 94 88 85 83 79
44 45 47 50 53 53 53 57 59 63 66 68 74 79 85 91 95 101 106 112 117 121 126 124 123 120 120 117 116 116 115 114 109 103 99 94 92 90 87 84 80 76 76
46 48 50 52 53 54 57 59 62 65 70 75 80 86 91 96 102 108 113 118 122 125 126 122 116 118 120 119 113 108 103 99 96 93 90 87 83 80 79 76 74 72 69
45 48 50 52 55 56 57 62 67 71 75 81 85 91 96 102 108 112 119 125 129 129 127 123 124 122 120 117 107 104 99 95 89 85 82 80 77 74 71 67 65 64 63
48 50 52 55 55 57 62 67 70 74 80 85 92 98 103 106 112 117 122 128 132 129 125 123 119 113 111 104 100 97 92 90 85 78 74 71 68 66 63 59 59 58 57
49 51 54 56 58 61 66 70 74 80 87 93 98 104 110 115 119 124 128 132 128 121 121 116 110 101 96 91 91 87 83 79 76 72 68 65 62 60 59 56 55 55 53
55 56 56 58 60 64 69 74 80 87 94 100 104 111 115 121 126 127 125 125 118 115 113 106 97 88 85 83 80 77 74 71 69 67 64 61 57 56 56 56 54 52 51
61 60 60 60 64 68 72 80 88 95 100 107 112 116 122 126 128 128 126 123 117 106 98 94 89 83 81 78 75 74 71 69 66 63 59 57 55 53 51 50 50 49 47
63 61 62 64 70 75 81 88 95 100 106 112 118 124 130 134 129 122 118 113 105 99 92 87 83 80 77 74 72 70 68 65 61 59 57 54 51 48 47 45 45 44 42
61 62 64 69 75 81 87 95 100 105 110 114 121 129 132 130 124 120 115 109 99 93 88 83 80 76 74 70 68 66 63 60 56 53 53 52 49 46 44 42 41 41 40
63 66 71 76 82 89 95 101 107 111 116 122 127 130 127 125 125 119 108 99 93 88 82 77 74 71 68 65 63 60 58 55 53 52 51 50 47 44 42 40 37 38 36
68 72 78 84 90 96 102 108 113 117 124 127 130 130 129 125 119 109 98 91 86 82 77 73 70 66 63 61 58 55 54 51 49 48 47 45 42 39 39 37 34 33 33
74 80 87 93 99 103 109 113 119 126 131 132 131 128 126 119 110 100 92 86 81 78 73 70 66 63 59 56 54 52 51 49 47 44 43 41 39 36 33 31 30 29 28
83 88 94 100 104 109 113 119 125 127 129 129 128 128 119 111 103 95 88 81 77 72 68 64 61 58 55 53 52 50 49 47 44 41 38 35 32 30 28 26 25 24 24
90 97 101 107 110 115 120 126 127 129 129 131 132 122 117 106 98 90 83 77 73 69 66 61 58 56 55 53 50 48 45 43 41 38 35 31 28 26 25 23 22 21 21
98 102 107 110 114 121 127 127 127 129 133 131 122 117 107 99 92 84 78 73 69 65 61 59 58 56 53 49 46 43 42 41 39 36 33 29 26 24 22 21 20 19 19
104 109 112 118 122 127 129 127 127 130 125 123 118 107 100 93 85 79 74 69 66 62 60 59 55 52 50 49 47 43 38 37 35 32 29 27 23 22 20 19 18 17 17
109 113 118 123 127 126 125 128 130 124 123 117 108 99 93 86 80 75 70 66 62 60 58 54 51 50 48 46 45 43 40 37 33 31 28 24 22 20 19 18 17 17 17
113 117 123 127 129 125 127 130 124 120 116 109 98 93 85 80 76 71 66 62 60 58 54 51 49 48 45 43 42 39 37 34 32 28 25 23 21 20 18 17 17 17 17

GFSMW_250_spd_033.txt.gz
Wind_Speed
45 44 45 46 47 48 37 38 43 54 54 62 68 69 70 68 66 67 68 70 72 73 76 76 75 75 76 78 80 81 82 85 86 87 88 88 90 91 94 97 96 95 97
40 40 44 48 48 45 50 51 52 57 59 62 64 65 65 64 66 68 70 72 74 75 76 78 77 79 82 85 87 89 90 93 94 95 95 93 96 99 104 106 106 106 106
34 36 42 44 48 50 51 50 52 55 57 59 63 65 66 66 67 71 73 75 77 78 79 81 84 86 89 93 95 99 101 101 101 102 104 105 105 107 112 115 117 117 118
37 40 43 46 49 50 49 51 52 53 57 60 61 63 65 66 68 71 74 77 79 82 84 88 92 97 101 104 108 108 109 111 112 115 116 116 115 114 112 111 117 121 123
43 46 49 49 50 48 46 50 52 54 56 60 63 64 67 70 73 77 79 82 85 89 93 97 101 105 109 112 115 117 119 121 124 124 124 123 121 119 116 112 116 121 125
36 40 44 45 44 41 44 51 54 57 59 60 62 67 71 73 76 79 82 85 90 95 99 102 107 111 114 118 120 123 123 124 124 122 122 122 122 122 121 116 112 117 122
36 38 42 44 45 45 48 52 55 58 61 64 67 70 73 76 79 82 86 90 95 101 106 110 114 118 120 124 126 125 126 123 123 125 124 121 119 113 106 99 96 95 98
42 45 48 50 51 51 53 56 58 61 64 67 71 73 76 79 83 86 91 97 102 107 111 115 119 121 124 124 121 120 119 120 123 124 119 111 104 100 95 92 87 86 86
40 45 48 51 52 53 56 58 60 63 66 69 71 73 78 83 87 90 96 103 108 113 117 118 122 124 123 120 120 121 121 120 118 115 109 102 97 93 89 85 81 76 74
40 41 43 45 49 53 56 58 60 62 64 67 71 76 81 86 90 95 101 110 114 120 123 124 124 125 127 124 120 116 114 109 107 106 100 93 87 83 79 75 71 69 67
43 46 49 51 52 54 56 59 62 64 67 70 74 79 85 89 96 102 109 116 121 123 124 128 130 127 123 120 115 108 102 99 95 92 89 84 77 73 70 68 66 64 61
48 50 52 53 54 57 59 61 64 67 69 73 79 85 90 95 103 109 114 120 125 128 127 123 121 118 114 112 107 101 94 88 83 78 76 74 71 68 67 65 64 62 60
52 53 55 56 58 60 61 62 65 68 73 79 85 91 99 105 110 116 122 128 127 123 120 119 115 109 103 99 96 90 83 78 75 72 69 67 66 64 62 60 59 58 56
55 56 57 58 59 60 61 63 67 72 79 86 93 101 108 113 118 123 130 125 120 117 111 107 105 101 96 89 85 80 76 74 71 67 64 62 61 59 58 56 55 53 52
58 60 59 59 59 61 64 69 75 81 88 95 101 109 114 119 123 129 122 120 117 110 107 102 99 95 90 84 80 77 75 71 68 64 61 59 57 56 54 53 52 51 49
60 61 60 60 63 67 73 77 84 90 98 102 109 114 119 125 128 122 120 116 113 110 106 100 93 89 84 79 76 73 72 68 65 62 59 57 55 52 49 47 47 48 48
61 62 64 66 70 76 81 87 93 99 104 109 113 118 125 125 122 125 125 117 110 108 100 92 86 82 77 74 72 69 66 63 60 58 57 55 52 48 44 41 40 40 42
64 68 71 74 78 82 88 94 100 105 110 114 119 125 129 130 127 126 119 114 110 101 92 86 81 76 72 70 67 64 62 60 58 57 55 53 50 46 42 39 37 35 36
69 72 75 80 84 90 96 101 107 112 116 119 127 129 127 123 124 120 117 113 103 94 87 82 76 72 69 66 64 64 61 57 53 51 48 47 45 42 38 36 34 32 31
76 79 82 86 92 97 102 108 113 119 123 126 126 124 122 124 121 117 112 104 95 88 82 76 71 67 63 61 60 57 54 51 48 46 44 42 41 39 36 33 31 28 26
83 85 89 94 97 102 108 113 119 124 126 125 126 125 125 126 117 114 105 96 88 83 77 71 67 63 62 59 55 53 51 50 47 46 43 40 37 34 31 29 27 24 23
87 91 96 100 104 109 114 121 124 126 124 125 126 125 128 122 115 108 98 90 83 77 71 67 63 60 58 55 51 50 49 47 46 44 39 36 33 30 26 24 22 20 19
93 98 102 106 110 116 120 127 123 123 123 126 128 127 121 115 108 98 90 83 78 71 66 63 59 58 55 53 50 47 45 44 44 40 36 33 30 27 23 21 19 18 16
100 104 109 113 117 122 127 124 124 126 125 128 126 118 114 108 99 91 84 78 72 66 63 61 58 55 53 52 50 46 42 40 38 37 34 31 27 25 21 19 17 16 15
105 109 114 121 123 126 127 124 127 126 124 126 119 115 108 99 91 84 78 72 67 63 60 58 55 53 51 51 48 45 41 39 37 34 32 29 25 22 20 18 17 15 15
110 116 120 124 129 128 128 127 126 122 123 123 117 108 99 90 83 78 73 68 64 60 58 55 53 52 51 48 45 41 39 37 36 33 31 28 25 22 19 18 17 15 15

GFSMW_250_spd_039.txt.gz
Wind_Speed
61 56 50 50 52 50 49 46 43 38 43 54 60 58 71 71 75 75 83 89 91 92 94 95 93 89 85 84 83 84 85 86 86 86 87 89 90 90 90 91 93 94 96
39 41 46 45 44 45 45 45 42 43 43 47 53 58 66 76 78 86 85 89 91 90 90 87 85 85 85 87 88 88 90 91 90 90 91 92 93 94 97 100 103 107 107
34 35 38 41 41 43 43 44 47 50 55 57 57 61 63 72 73 75 79 81 81 81 83 84 86 87 87 89 92 90 89 92 94 96 100 101 104 105 108 113 116 118 121
32 32 32 31 32 33 35 38 41 45 48 50 53 57 62 64 67 70 73 75 78 81 83 84 85 87 87 89 92 94 96 99 104 108 112 114 117 120 120 122 123 125 128
24 25 28 32 35 38 41 44 47 49 51 53 55 58 60 62 64 66 69 72 75 78 81 82 84 86 88 91 95 99 105 109 113 116 119 122 125 126 127 127 126 124 127
26 29 32 35 38 41 44 47 50 52 54 56 58 60 62 65 67 69 71 73 77 79 80 81 84 88 94 99 105 110 112 114 117 120 122 124 124 125 128 123 119 118 120
28 32 36 40 43 46 49 51 54 57 59 61 63 65 66 67 69 71 73 74 74 76 81 86 93 98 102 106 109 111 113 116 119 118 119 122 122 123 121 115 110 106 106
32 35 38 42 45 48 51 54 56 58 60 62 63 64 65 65 66 68 69 72 77 82 87 95 99 102 107 106 109 110 112 114 115 116 119 119 117 114 110 105 98 94 93
35 37 41 44 46 49 51 53 55 56 57 59 60 60 61 61 64 69 74 79 84 90 95 99 102 104 105 106 109 111 112 111 113 113 109 108 107 101 95 90 85 81 78
38 41 44 46 49 51 52 54 55 54 55 56 57 59 62 65 69 74 80 82 91 94 98 103 102 105 106 106 106 109 110 108 105 101 97 93 90 86 83 80 77 73 70
42 45 48 50 53 54 54 54 53 52 53 56 59 61 64 71 77 81 87 94 97 102 104 104 106 105 109 110 112 111 104 100 95 90 85 81 78 77 74 72 70 67 65
45 46 49 52 53 53 52 54 55 55 56 59 61 66 74 79 86 92 100 101 102 106 105 107 109 111 115 112 110 102 96 91 85 81 78 77 74 72 69 68 66 63 60
48 48 51 53 56 56 54 54 56 59 63 67 70 77 83 88 95 100 104 108 107 109 111 112 116 117 113 106 102 95 88 83 79 76 73 72 70 68 66 65 63 61 58
53 53 56 58 60 62 61 62 63 65 69 73 79 84 89 95 102 106 109 110 112 114 114 115 114 113 108 100 93 88 83 80 77 74 72 69 66 65 64 61 58 55 54
59 60 62 64 66 67 68 69 69 71 75 79 84 89 96 102 107 109 110 113 115 117 118 117 113 109 102 94 88 85 81 78 75 71 69 66 63 61 58 55 53 52 51
63 66 69 70 72 73 75 77 77 78 82 85 91 97 103 109 110 112 115 116 115 119 117 114 108 102 93 88 84 82 79 75 71 69 67 64 60 57 54 50 47 46 45
70 73 74 74 75 77 80 83 82 83 87 92 98 104 111 113 114 114 115 115 115 114 115 108 101 95 90 85 82 79 74 70 67 64 63 61 57 55 53 50 46 44 41
74 76 77 77 80 82 85 87 85 87 92 98 103 111 114 116 114 117 116 115 115 114 109 104 96 91 88 83 78 74 70 67 63 60 59 58 55 52 50 47 44 40 37
78 81 81 82 84 87 89 88 89 93 99 103 110 116 116 117 116 115 116 115 111 107 106 100 93 89 85 79 74 71 68 65 61 58 56 56 53 48 46 43 40 38 35
82 84 86 87 89 93 91 90 94 100 104 111 116 119 119 117 114 114 114 112 107 107 100 94 91 87 81 75 71 68 65 62 60 56 55 51 48 44 41 39 37 35 34
87 88 91 92 94 94 92 95 100 105 111 116 121 121 118 115 113 114 114 111 107 101 95 91 87 82 75 72 68 64 62 60 57 56 53 47 43 39 38 36 34 34 31
92 92 94 96 96 95 97 100 106 111 117 122 125 121 115 112 113 115 112 107 102 97 93 87 82 76 72 69 64 61 58 57 55 54 49 45 41 38 36 34 32 31 29
93 94 97 98 96 97 101 106 112 118 122 126 121 115 114 114 115 112 108 104 98 92 88 82 77 71 68 64 61 58 56 54 53 49 45 42 40 36 35 32 30 29 26
95 98 99 98 99 102 107 113 119 123 127 121 115 117 116 116 112 107 103 101 94 89 83 78 71 67 64 61 58 56 54 52 48 44 41 39 38 34 32 32 29 27 25
100 99 99 100 104 109 114 120 124 127 119 117 115 116 112 111 110 105 102 95 89 84 78 72 67 64 61 58 56 54 52 49 45 42 39 37 36 34 32 30 28 26 24
101 100 101 105 110 116 120 124 126 120 116 118 117 112 108 107 104 100 94 88 83 78 74 68 64 61 58 55 54 52 50 46 42 40 38 36 33 32 30 28 27 25 23

GFSMW_250_spd_042.txt.gz
Wind_Speed
53 55 54 52 51 52 52 51 49 44 43 47 50 52 53 60 60 68 77 80 82 83 89 96 94 95 102 98 98 96 93 93 91 91 89 89 89 87 86 87 87 89 90
44 43 48 49 47 44 39 38 37 37 41 44 46 52 56 55 66 77 76 81 85 88 92 96 96 94 89 88 88 87 89 90 89 87 87 87 89 91 89 95 99 100 102
36 37 36 33 35 37 38 39 38 39 42 44 46 50 52 55 60 63 68 70 72 77 79 81 81 83 85 87 89 88 85 84 87 90 93 96 101 104 108 109 109 113 116
29 30 32 31 29 28 32 35 38 42 45 48 51 54 56 58 62 65 69 72 75 77 79 81 82 84 84 82 83 85 90 93 97 102 104 107 111 116 117 120 123 125 128
23 20 22 25 28 31 35 38 42 46 49 52 56 58 61 64 66 68 70 72 73 75 75 75 73 74 80 84 87 93 95 99 102 107 109 111 111 116 119 120 121 124 126
20 22 26 29 33 35 38 42 45 49 52 55 58 60 62 64 66 66 66 65 65 64 65 71 78 81 85 90 93 97 101 102 103 106 108 109 110 112 116 119 119 117 119
23 26 29 31 35 38 41 45 48 51 55 57 59 61 63 64 63 62 61 61 63 68 72 78 85 88 95 99 99 99 102 105 106 108 110 109 112 115 116 114 111 106 108
24 27 31 35 38 41 45 48 52 54 56 58 59 59 59 59 59 59 62 64 68 76 80 87 93 96 97 95 100 103 103 104 107 108 110 110 111 109 107 106 102 98 98
27 30 35 39 41 43 45 48 50 52 54 56 58 57 56 58 60 64 67 71 77 82 87 93 96 94 97 99 103 105 107 109 108 109 108 107 103 101 99 96 93 90 86
29 31 34 38 41 44 48 51 53 54 54 56 58 61 63 64 67 69 72 77 82 88 96 94 95 97 100 103 106 108 109 110 110 106 103 99 96 94 91 87 84 81 75
32 34 39 41 45 49 52 56 58 59 60 61 61 63 66 68 70 74 77 84 88 97 96 96 99 100 103 105 107 111 110 107 103 99 95 93 89 85 82 78 73 70 68
35 39 44 47 51 55 59 62 63 64 65 66 66 68 69 69 72 77 85 90 96 101 102 102 101 102 105 108 110 109 104 103 97 92 88 83 80 77 73 69 66 64 62
40 44 49 53 56 60 63 67 69 70 71 71 71 74 74 75 78 86 90 96 104 106 105 104 105 106 108 110 108 103 101 95 89 85 82 77 73 69 67 63 61 59 58
46 49 53 57 61 66 68 72 73 75 76 77 78 79 79 80 85 91 98 103 108 110 109 109 108 110 112 109 104 100 93 88 83 80 75 71 68 66 64 62 59 56 55
51 55 59 62 67 71 73 77 80 82 82 83 84 85 85 86 93 98 104 108 114 114 112 113 112 111 108 104 100 94 88 83 79 75 70 67 66 63 60 58 56 55 55
59 62 65 69 72 76 78 83 86 86 86 87 89 89 89 92 98 104 110 114 116 113 112 115 110 106 102 98 95 88 83 79 75 71 68 64 63 61 59 55 54 53 51
64 67 70 74 78 81 85 88 91 88 90 92 94 92 93 99 106 110 115 118 115 112 113 111 107 103 100 95 87 81 78 73 70 67 65 62 60 58 56 56 53 48 44
68 72 76 80 84 87 90 93 93 92 94 97 96 94 99 105 111 115 119 119 116 110 107 106 109 103 97 87 81 78 74 69 66 64 61 59 56 55 55 52 47 42 41
73 77 81 86 89 91 94 95 93 95 99 98 96 100 106 112 116 120 123 118 113 109 105 105 105 101 90 82 78 75 70 67 63 61 57 55 54 54 50 46 42 38 38
78 81 85 89 92 94 95 95 96 100 101 98 101 106 112 118 121 124 121 112 109 109 107 105 100 93 86 79 75 71 67 64 61 56 54 53 52 49 44 42 39 36 36
81 85 89 93 96 96 96 98 101 101 99 102 106 111 117 122 126 124 113 111 110 109 105 102 95 88 81 75 72 67 64 61 57 54 52 52 49 43 40 39 37 35 34
85 89 94 97 97 97 99 102 101 101 103 107 112 117 121 125 120 114 112 111 109 106 102 97 90 82 76 72 68 64 61 57 53 52 52 51 45 40 38 36 35 34 32
89 94 97 97 98 99 100 99 101 105 110 114 118 122 126 120 112 113 112 110 107 104 97 91 83 77 74 69 64 60 57 53 51 50 51 47 43 39 37 36 33 31 30
95 98 100 99 100 101 101 105 108 112 116 119 124 123 115 111 112 110 110 107 102 98 91 83 78 74 70 66 61 57 53 50 49 49 48 43 41 39 35 32 32 29 28
98 97 97 99 101 102 105 109 113 117 121 123 118 114 112 113 111 108 105 101 96 90 83 79 74 71 66 62 58 53 50 48 47 47 44 40 38 37 37 34 31 30 27
96 98 99 102 104 109 111 116 119 124 123 119 115 114 114 112 106 101 100 98 90 82 78 74 70 67 62 59 54 51 48 46 45 45 42 38 36 34 33 33 30 28 27

GFSMW_250_spd_048.txt.gz
Wind_Speed
32 33 40 48 44 48 51 56 61 59 58 61 68 69 63 61 62 61 60 61 64 67 70 73 77 82 81 80 80 80 80 80 78 74 70 68 73 78 84 87 90 94 96
43 45 47 50 49 52 55 53 55 57 61 59 56 56 52 49 49 52 55 60 63 67 70 74 75 76 77 77 76 76 74 71 70 71 74 76 82 89 93 98 102 106 108
46 50 50 48 48 47 49 51 51 51 49 46 42 42 45 48 50 55 58 61 64 66 65 65 65 65 66 68 69 69 68 70 73 77 80 84 88 92 99 104 108 113 115
41 46 47 49 46 45 43 43 39 35 36 38 40 43 45 48 51 53 54 59 62 63 64 65 65 67 69 71 73 74 75 75 75 81 88 94 98 101 104 109 114 116 117
40 40 38 38 39 37 32 30 32 35 36 39 41 42 43 44 46 49 52 55 56 58 61 65 68 69 71 73 74 73 74 75 82 89 95 101 107 113 115 112 109 109 113
35 36 34 33 27 27 29 30 31 34 36 37 37 39 43 45 50 57 61 65 67 67 65 63 66 70 71 72 73 75 78 83 91 98 102 107 109 111 113 112 111 108 106
32 26 24 24 26 27 27 29 30 33 36 38 41 44 48 53 56 61 66 71 73 76 73 71 71 72 74 75 76 79 84 91 97 102 106 110 112 111 111 109 106 101 98
24 24 23 26 27 27 29 30 32 37 42 42 47 52 56 59 65 68 74 77 79 81 79 77 77 77 77 79 82 88 94 97 101 107 111 112 112 111 110 107 102 96 97
23 23 25 26 29 30 34 37 38 43 47 51 54 58 61 66 71 75 77 81 84 84 81 79 79 80 81 85 89 95 99 102 107 111 111 111 109 110 109 104 102 97 90
25 26 29 31 32 36 38 45 46 48 54 59 61 63 68 73 77 79 83 86 89 87 84 84 84 85 90 94 97 99 103 107 110 110 107 109 110 109 106 103 98 92 86
29 31 32 36 39 38 43 50 54 54 58 63 66 69 75 80 84 83 87 90 92 89 87 87 89 93 96 102 101 104 107 109 110 111 110 111 108 105 100 95 90 85 80
35 36 39 40 45 48 47 51 57 61 65 69 72 77 82 85 85 90 90 94 94 91 89 91 95 99 103 106 107 108 111 109 113 113 113 111 106 100 92 88 82 78 75
39 41 45 46 47 50 54 55 62 68 73 76 79 82 83 85 89 92 95 97 93 91 94 97 102 105 107 109 112 113 111 111 110 110 110 107 103 93 86 82 77 73 70
43 43 46 50 52 54 58 61 64 70 76 79 83 84 85 89 91 95 98 94 93 95 99 104 108 107 111 115 116 113 112 113 112 108 105 101 93 85 81 76 72 66 65
46 51 51 54 56 57 61 65 69 74 80 82 83 86 90 92 96 98 96 94 96 100 105 109 112 113 116 117 113 113 112 108 106 105 100 90 83 78 75 72 66 62 61
51 54 58 59 59 61 65 72 76 79 80 84 88 91 92 99 98 98 95 97 101 106 110 113 115 118 117 115 114 111 106 103 100 96 89 82 76 73 69 68 64 59 56
56 57 59 62 63 64 70 75 79 79 84 89 92 94 98 100 100 98 99 103 108 112 115 116 117 116 112 113 110 106 103 98 91 88 83 77 71 69 65 61 59 58 56
60 61 63 65 66 72 76 79 82 84 89 93 95 100 102 100 99 101 104 109 112 114 117 118 116 112 109 107 105 104 100 94 87 80 78 73 67 66 61 58 56 55 53
62 65 65 68 72 77 81 85 88 91 92 95 100 101 100 99 102 105 110 114 115 116 115 114 114 113 110 106 104 101 96 92 83 75 74 69 64 61 58 55 54 53 52
65 65 69 73 77 80 85 89 92 94 97 102 102 102 102 104 107 112 116 117 118 116 115 117 113 109 106 104 103 95 89 85 77 72 70 67 61 58 55 52 52 50 47
67 70 73 77 82 85 90 93 96 100 104 104 103 103 105 109 114 117 118 120 118 115 115 112 109 107 106 100 97 88 82 78 74 69 65 63 59 55 52 51 50 48 44
73 76 79 83 87 91 95 97 101 107 105 102 103 106 111 115 119 118 117 114 114 115 112 109 108 105 99 94 90 83 78 75 71 66 62 58 55 52 51 49 48 46 42
77 81 86 90 92 95 97 102 108 105 103 104 108 113 118 120 119 120 118 115 115 113 111 108 103 98 92 86 82 80 74 70 66 63 59 56 51 50 48 46 45 43 39
85 89 93 95 96 97 103 106 104 104 106 110 115 120 122 123 121 116 115 115 112 110 108 101 95 91 86 81 78 75 72 65 63 59 55 53 50 48 45 44 43 41 36
91 93 96 96 97 105 107 105 106 108 112 117 122 123 121 118 116 115 114 112 107 103 101 95 88 83 82 79 74 68 67 64 59 56 54 50 48 46 43 42 40 38 34
95 96 96 99 107 108 107 107 110 115 120 122 120 120 118 116 114 110 108 107 102 96 94 89 84 81 77 74 70 66 63 59 57 55 51 48 46 44 41 40 39 37 33